DW4221 Weather Reports


time (UTC)temp
C
wind
direction
speed
KPH
gust
KPH
rain 1hr
cm
rain 24hr
cm
rain mn
cm
humidity
%
barometer
mb
20260903174558 25 115 4.8 12.9 0.00 0.00 0.00 59 1014.0
20260903173110 25 120 8.0 17.7 0.00 0.00 0.00 61 1014.0
20260903171604 25 69 9.7 20.9 0.00 0.00 0.00 60 1014.0
20260903170109 24 113 6.4 17.7 0.00 0.00 0.00 63 1014.3
20260903164608 24 144 8.0 20.9 0.00 0.00 0.00 62 1014.6
20260903163105 23 153 6.4 16.1 0.00 0.00 0.00 64 1014.6
20260903161554 23 98 6.4 17.7 0.00 0.00 0.00 66 1014.8
20260903160110 23 156 6.4 19.3 0.00 0.00 0.00 67 1014.9
20260903154607 22 126 6.4 19.3 0.00 0.00 0.00 67 1015.1
20260903153107 22 0 4.8 16.1 0.00 0.00 0.00 68 1015.3
20260903151603 22 148 6.4 19.3 0.00 0.00 0.00 69 1015.3
20260903150105 21 91 4.8 17.7 0.00 0.00 0.00 72 1015.5
20260903144601 21 105 9.7 19.3 0.00 0.00 0.00 73 1015.7
20260903143105 20 106 3.2 12.9 0.00 0.00 0.00 75 1015.7
20260903141553 20 133 3.2 11.3 0.00 0.00 0.00 76 1015.7
20260903140105 19 133 3.2 12.9 0.00 0.00 0.00 77 1015.8
20260903134608 18 119 1.6 11.3 0.00 0.00 0.00 80 1015.8
20260903133107 17 123 0.0 8.0 0.00 0.00 0.00 82 1015.5
20260903131605 17 112 0.0 4.8 0.00 0.00 0.00 83 1015.4
20260903130128 16 100 0.0 6.4 0.00 0.00 0.00 89 1015.6
20260903124612 14 0 0.0 4.8 0.00 0.00 0.00 93 1015.7
20260903123103 13 0 0.0 4.8 0.00 0.00 0.00 94 1015.4
20260903121602 13 0 0.0 3.2 0.00 0.00 0.00 96 1015.4
20260903120113 12 0 0.0 3.2 0.00 0.00 0.00 96 1015.4
20260903114605 12 0 0.0 3.2 0.00 0.00 0.00 97 1015.3
20260903113105 12 0 0.0 0.0 0.00 0.00 0.00 97 1015.4
20260903111605 12 0 0.0 0.0 0.00 0.00 0.00 96 1015.5
20260903110055 12 0 0.0 0.0 0.00 0.00 0.00 96 1015.4
20260903104554 12 355 0.0 3.2 0.00 0.00 0.00 96 1015.2
20260903103106 12 0 0.0 0.0 0.00 0.00 0.00 96 1015.2
20260903101632 12 0 0.0 0.0 0.00 0.00 0.00 95 1015.3
20260903100056 13 0 0.0 0.0 0.00 0.00 0.00 96 1015.2
20260903094605 13 0 0.0 0.0 0.00 0.00 0.00 96 1015.1
20260903093105 13 0 0.0 1.6 0.00 0.00 0.00 96 1014.9
20260903091600 13 0 0.0 1.6 0.00 0.00 0.00 96 1014.8
20260903090108 13 0 0.0 3.2 0.00 0.00 0.00 96 1014.9
20260903084553 13 355 0.0 3.2 0.00 0.00 0.00 97 1014.8
20260903083059 13 0 0.0 1.6 0.00 0.00 0.00 97 1015.0
20260903081603 13 0 0.0 0.0 0.00 0.00 0.00 96 1015.2
20260903080051 13 0 0.0 1.6 0.00 0.00 0.00 96 1015.2
20260903074611 13 0 0.0 0.0 0.00 0.00 0.00 95 1015.2
20260903073130 13 0 0.0 1.6 0.00 0.00 0.00 96 1015.3
20260903071615 13 0 0.0 0.0 0.00 0.00 0.00 96 1015.2
20260903070053 13 0 0.0 3.2 0.00 0.00 0.00 97 1015.4
20260903064558 13 0 0.0 0.0 0.00 0.00 0.00 96 1015.5
20260903063057 12 0 0.0 0.0 0.00 0.00 0.00 95 1015.6
20260903061604 13 0 0.0 0.0 0.00 0.00 0.00 96 1015.6
20260903060144 13 0 0.0 0.0 0.00 0.00 0.00 94 1015.6
20260903054602 13 0 0.0 3.2 0.00 0.00 0.00 94 1015.5
20260903053104 14 0 0.0 0.0 0.00 0.00 0.00 93 1015.5
20260903051606 14 0 0.0 1.6 0.00 0.00 0.00 96 1015.4
20260903050107 13 0 1.6 3.2 0.00 0.00 0.00 95 1015.3
20260903044604 13 0 1.6 3.2 0.00 0.00 0.00 95 1015.5
20260903043105 13 0 0.0 0.0 0.00 0.00 0.00 93 1015.7
20260903041558 13 0 0.0 0.0 0.00 0.00 0.00 92 1015.6
20260903040112 14 0 0.0 0.0 0.00 0.00 0.00 92 1015.3
20260903034551 14 0 0.0 0.0 0.00 0.00 0.00 92 1015.3
20260903033102 15 0 0.0 0.0 0.00 0.00 0.00 92 1015.3
20260903031554 15 0 0.0 0.0 0.00 0.00 0.00 91 1015.2
20260903030055 15 0 0.0 0.0 0.00 0.00 0.00 89 1015.2
20260903024551 16 0 0.0 0.0 0.00 0.00 0.00 89 1015.1
20260903023109 16 0 0.0 0.0 0.00 0.00 0.00 87 1015.3
20260903021605 17 0 0.0 0.0 0.00 0.00 0.00 86 1015.2
20260903020055 17 0 0.0 0.0 0.00 0.00 0.00 85 1014.9
20260903014609 17 0 0.0 0.0 0.00 0.00 0.00 84 1014.8
20260903013107 18 0 0.0 0.0 0.00 0.00 0.00 82 1014.6
20260903011555 19 0 0.0 0.0 0.00 0.00 0.00 79 1014.5
20260903004603 20 0 0.0 0.0 0.00 0.00 0.00 73 1014.5
20260903003107 21 0 0.0 0.0 0.00 0.00 0.00 69 1014.6
20260903001625 22 0 0.0 6.4 0.00 0.00 0.00 65 1014.4
20260903000103 23 10 1.6 6.4 0.00 0.00 0.00 62 1014.4
20260902234626 23 0 0.0 8.0 0.00 0.00 0.00 60 1014.3
20260902233105 23 0 1.6 6.4 0.00 0.00 0.00 61 1014.3
20260902231614 23 0 1.6 6.4 0.00 0.00 0.00 61 1014.4
20260902230115 23 0 0.0 3.2 0.00 0.00 0.00 61 1014.3
20260902224551 23 0 0.0 4.8 0.00 0.00 0.00 62 1014.4
20260902223059 24 0 0.0 6.4 0.00 0.00 0.00 60 1014.2
20260902221555 24 355 0.0 8.0 0.00 0.00 0.00 57 1014.1
20260902220100 24 0 0.0 6.4 0.00 0.00 0.00 56 1014.0
20260902214613 24 5 1.6 14.5 0.00 0.00 0.00 55 1014.0
20260902213059 25 24 1.6 16.1 0.00 0.00 0.00 54 1014.0
20260902211606 25 20 3.2 9.7 0.00 0.00 0.00 54 1014.0
20260902210103 25 0 0.0 4.8 0.00 0.00 0.00 55 1014.0
20260902204554 25 0 0.0 8.0 0.00 0.00 0.00 53 1014.1
20260902203058 25 245 0.0 12.9 0.00 0.00 0.00 57 1014.1
20260902201554 25 0 1.6 16.1 0.00 0.00 0.00 55 1014.3
20260902194602 24 114 0.0 8.0 0.00 0.00 0.00 56 1014.4
20260902193058 25 346 4.8 14.5 0.00 0.00 0.00 54 1014.5
20260902191605 24 315 0.0 8.0 0.00 0.00 0.00 58 1014.5
20260902190106 24 0 1.6 11.3 0.00 0.00 0.00 59 1014.8
20260902184601 24 355 1.6 9.7 0.00 0.00 0.00 58 1014.8
20260902183059 24 45 3.2 11.3 0.00 0.00 0.00 57 1014.9
20260902181558 23 240 0.0 8.0 0.00 0.00 0.00 61 1015.0
20260902180103 23 258 1.6 12.9 0.00 0.00 0.00 61 1014.8